Regional Weather Roundup
Issued by NWS

Current Version | Previous Version | Text Only | Print | Product List | Glossary On
Versions: 1 2 3 4 5 6 7 8 9 10 11 12 13 14 15 16 17 18 19 20 21 22 23 24 25 26 27 28 29 30 31 32 33 34 35 36 37 38 39 40 41 42 43 44 45 46 47 48 49 50
000
ASUS42 KTBW 231210
RWRFL
FLORIDA REGIONAL WEATHER ROUNDUP
NATIONAL WEATHER SERVICE TAMPA BAY RUSKIN FL
700 AM EST SUN NOV 23 2014

NOTE: "FAIR" INDICATES FEW OR NO CLOUDS BELOW 12,000 FEET WITH NO
SIGNIFICANT WEATHER AND/OR OBSTRUCTIONS TO VISIBILITY.


FLZ001>010-012>015-112-114-115-231300-
PANHANDLE FLORIDA

CITY           SKY/WX    TMP DP  RH WIND       PRES   REMARKS
PENSACOLA      LGT RAIN  66  66 100 SE12      29.81F
PENSACOLA NAS  CLOUDY    69  67  93 E16       29.80F FOG
MILTON NAS     CLOUDY    67  66  97 SE14      29.83F
CRESTVIEW      CLOUDY    66  65  96 E5        29.87F FOG
DUKE FIELD     CLOUDY    68  66  94 SE10      29.85F
VALPARAISO     LGT RAIN  67  66  97 SE12      29.84F FOG
MARY ESTHER    CLOUDY    68  64  89 SE14      29.83S
TRI COUNTY     CLOUDY    63  62  97 E5        29.90F FOG
PANAMA CITY    CLOUDY    71  67  87 SE13      29.87F
TYNDALL AFB    CLOUDY    71  70  96 SE18G25   29.88S
APALACHICOLA   CLOUDY    71  67  87 SE14      29.90S

STATION/POSITION SKY/WX   TEMP    WIND        PRES    WAVE   SWELL
                          AIR SEA DIR/SP/G            HT/PER HT/PER
                          (F)     (DEG/KT/KT) (MB)    (FT/S) (FT/S)
30.1N   87.6W              71 66  130/ 14/ 16 1007.9F   8/ 8   7/ 8
29.2N   88.2W              74 72  150/ 16/ 17 1008.3F   7/ 8   7/ 8
28.7N   86.0W              78 76  170/ 21/ 27 1010.9R   9/ 8
PANAMA CITY BEAC           67 65  120/ 22/ 25 1010.7F
CAPE SAN BLAS    NOT AVBL
TOWER C                    69     140/ 19/ 20 1012.2F
28.5N   84.5W              72 70  160/ 21/ 25 1012.0R   8/ 8   3/14

$$
FLZ011-016>038-118-127-128-134-139-239-231300-
NORTH FLORIDA

CITY           SKY/WX    TMP DP  RH WIND       PRES   REMARKS
MARIANNA       LGT RAIN  63  63 100 E6        29.90F
TALLAHASSEE    LGT RAIN  70  66  87 S12G18    29.93S
PERRY          CLOUDY    69  68  97 SE7       29.95S
CROSS CITY       N/A     70  69  97 VRB5      29.95S
LAKE CITY      CLOUDY    66  66 100 SE8       29.99S
GAINESVILLE    CLOUDY    68  68 100 SE9       29.98F
MAYPORT NAS    HVY RAIN  70  69  97 S7        30.01S FOG
JACKSONVILLE   CLOUDY    68  68 100 CALM      30.01S FOG
JAX NAS        LGT RAIN  70  67  90 CALM      30.01F
JAX CRAIG      LGT RAIN  70  68  93 SW3       30.01S
JAX CECIL      LGT RAIN  68  68 100 VRB6      30.00F
FERNANDINA BEA CLOUDY    73  70  88 S5        30.00F
ST AUGUSTINE   CLOUDY    70  69  97 S8        30.01F

STATION/POSITION SKY/WX   TEMP    WIND        PRES    WAVE   SWELL
                          AIR SEA DIR/SP/G            HT/PER HT/PER
                          (F)     (DEG/KT/KT) (MB)    (FT/S) (FT/S)
SHELL POINT                62     120/ 10/ 13   N/A
KEATON BEACH               71     130/ 14/ 18 1014.1R
CEDAR KEY                  63     130/ 12/ 12 1015.0F
FERNANDINA                 67 59  170/  4/  6 1016.0F
30.7N   81.3W                 62                N/A     6/ 6
MAYPORT                    69 63  180/  5/ 10   N/A
31.4N   80.9W              67 64  100/ 17/ 21 1016.2F   7/ 8   2/14
ST AUGUSTINE               69     180/ 11/ 12 1016.6R

$$
FLZ040-043>046-052-053-057-058-063-144-231300-
INTERIOR CENTRAL FLORIDA

CITY           SKY/WX    TMP DP  RH WIND       PRES   REMARKS
OCALA          MOCLDY    70  66  88 S5        30.00S FOG
THE VILLAGES     N/A     70  70 100 SE6G14    29.90S
LEESBURG       CLOUDY    70  69  97 SE8       30.01S
SANFORD        CLOUDY    71  69  93 SE8       30.02R
ORLANDO EXEC   CLOUDY    73  71  93 S12       30.01R
ORLANDO INTL   CLOUDY    73  71  93 SE10      30.02R
KISSIMMEE        N/A     70  70 100 SE6         N/A
WINTER HAVEN   CLOUDY    71  70  96 SE6       30.02S
LAKELAND       CLOUDY    72  70  94 SE8       30.01R
BARTOW         CLOUDY    70 N/A N/A SE6       30.02R
OKEECHOBEE     CLEAR    N/A N/A N/A SE6       30.02S

$$
FLZ041-047-054-059-064-141-147-231300-
EAST CENTRAL FLORIDA

CITY           SKY/WX    TMP DP  RH WIND       PRES   REMARKS
ORMOND BEACH   CLOUDY    72  70  94 S6        30.01
DAYTONA BEACH  CLOUDY    73  70  90 S12G21    30.02S
DELAND         CLOUDY    70  70 100 SE7       30.02S
JFK SPACE CTR  CLOUDY    72  64  78 E13G23    30.16R
CAPE CANAVERAL CLOUDY    72  66  83 E15G23    30.15S
PATRICK AFB    CLOUDY    73  71  95 SE13      30.02R
MELBOURNE      CLOUDY    74  71  91 SE14      30.02S FOG
VERO BEACH     CLOUDY    72  68  87 SE12      30.02F
FT PIERCE      MOCLDY    75  72  90 SE12      30.02S
STUART         MOCLDY    73  72  94 SE7       30.04R

STATION/POSITION SKY/WX   TEMP    WIND        PRES    WAVE   SWELL
                          AIR SEA DIR/SP/G            HT/PER HT/PER
                          (F)     (DEG/KT/KT) (MB)    (FT/S) (FT/S)
28.5N   80.2W              77 77  140/ 25/ 31 1016.0F
28.9N   78.5W              76 78  110/ 25/ 29 1017.4F  10/ 9   5/ 9
TRIDENT PIER               72 68  140/ 11/ 16 1015.8F
28.4N   80.5W                 68                N/A     6/ 9   2/11
27.6N   80.2W                 71                N/A     8/ 7   2/11

$$
FLZ050-056-061-142-242-148-248-149-249-151-251-155-255-
160-260-231300-
WEST CENTRAL FLORIDA

CITY           SKY/WX    TMP DP  RH WIND       PRES   REMARKS
CRYSTAL RIVER  CLOUDY    72  68  88 SE7       29.98S
INVERNESS      CLOUDY    70  70 100 S8        30.00S
BROOKSVILLE    CLOUDY    72  70  93 SE10      29.99R
ZEPHYRHILLS    CLOUDY    70  70 100 CALM      30.02R
CLEARWATER     CLOUDY    72  70  93 SE10      29.99R
TAMPA INTL     CLOUDY    73  69  87 SE8       29.99R
TAMPA EXEC     CLOUDY    73  70  88 SE6       30.01R
PLANT CITY     CLOUDY    73 N/A N/A SE8       30.03R
MACDILL AFB    CLEAR     71  71 100 SE8       29.99R
PETER O KNIGHT CLOUDY    73  72  94 SE8       30.00R
ST PETERSBURG  CLOUDY    70  67  90 S3        29.97R
SARASOTA       CLOUDY    73  71  93 SE14G24   29.96S
VENICE         FAIR      73  72  94 SE14G20   29.98F

STATION/POSITION SKY/WX   TEMP    WIND        PRES    WAVE   SWELL
                          AIR SEA DIR/SP/G            HT/PER HT/PER
                          (F)     (DEG/KT/KT) (MB)    (FT/S) (FT/S)
CEDAR KEY                  63     130/ 12/ 12 1015.0F
28.5N   84.5W              72 70  160/ 21/ 25 1012.0R   8/ 8   3/14
27.3N   84.3W                 78                N/A     7/ 6
CLEARWATER BEACH           72 62  140/ 10/ 15 1014.7F
MIDDLE TAMPA BAY           71     160/ 11/ 14   N/A
VENICE                     73 67  130/ 13/ 16 1014.7S

$$
FLZ066-069-070-075>078-162-262-165-265-231300-
SOUTHWEST FLORIDA AND KEYS

CITY           SKY/WX    TMP DP  RH WIND       PRES   REMARKS
PUNTA GORDA    CLOUDY    73  71  93 SE9       30.01S
FT MYERS       CLEAR     72  71  97 SE9       29.99R
SOUTHWEST INTL CLEAR     71  70  96 SE8       30.01R
NAPLES         PTCLDY    72  72 100 SE7       29.99R
MARCO ISLAND   CLOUDY    72  70  94 SE8       30.00R
MARATHON       MOCLDY    78  75  90 SE10      29.99S
KEY WEST NAS   PTCLDY    76  73  91 SE14      29.98S
KEY WEST INTL  PTCLDY    78  78 100 SE15      29.99R

STATION/POSITION SKY/WX   TEMP    WIND        PRES    WAVE   SWELL
                          AIR SEA DIR/SP/G            HT/PER HT/PER
                          (F)     (DEG/KT/KT) (MB)    (FT/S) (FT/S)
VENICE                     73 67  130/ 13/ 16 1014.7S
NAPLES                     72 73  130/  5/ 11 1016.1S
26.0N   85.6W              78 80  140/ 14/ 17 1011.9R   5/ 7   3/11
DRY TORTUGAS               78     130/ 13/ 14 1014.2R
NW FL BAY                  75     100/  6/  6 1015.9R
SAND KEY                   79     130/ 16/ 18 1015.1R
SOMBRERO KEY               79     130/ 19/ 22 1016.2R
LONG KEY                   78 74  140/ 11/ 12 1016.5R
MOLASSES REEF              79 78  140/ 19/ 21 1016.2R

$$
FLZ067-068-071>074-168-172>174-231300-
SOUTHEAST FLORIDA

CITY           SKY/WX    TMP DP  RH WIND       PRES   REMARKS
W PALM BEACH   MOCLDY    78  72  81 SE15      30.02R
FT LAUDER-EXEC PTCLDY    77  72  84 SE13      30.02R
FT LAUDERDALE  PTCLDY    78  71  79 SE14      30.02R
POMPANO BEACH  PTCLDY    78  72  81 SE15      30.03R
PEMBROKE PINES MOCLDY    77  72  84 SE10      30.03S
OPA LOCKA      PTCLDY    76  72  87 SE10      30.03R
MIAMI          PTCLDY    77  72  84 SE13      30.02S
WEST KENDALL   CLEAR     76  72  87 SE8       30.02S
HOMESTEAD      CLEAR     76  72  85 SE8       30.02R

STATION/POSITION SKY/WX   TEMP    WIND        PRES    WAVE   SWELL
                          AIR SEA DIR/SP/G            HT/PER HT/PER
                          (F)     (DEG/KT/KT) (MB)    (FT/S) (FT/S)
PORT EVERGLADES            78     130/ 13/ 16 1016.7
VIRGINIA KEY               78 74  130/ 11/ 14 1017.2R
LAKE WORTH                 78 77  140/ 18/ 21 1016.7R
SETTLEMENT POINT           74     100/ 10/ 13 1018.1R

$$



USA.gov is the U.S. government's official web portal to all federal, state and local government web resources and services.